Blacksburg, VA

7:47 PM EST on December 15, 2017 (GMT -0500)
Virginia Tech

Weather History for KBCB - August, 2014

Change the Weather History Date:

Wednesday, August 27, 2014

  Actual Average Record
Temperature  
Mean Temperature 68 °F 69 °F  
Max Temperature 84 °F 81 °F 96 °F (1959)
Min Temperature 51 °F 57 °F 40 °F (1968)
Degree Days  
Heating Degree Days 0 1  
Month to date heating degree days 3 2  
Since 1 June heating degree days 14 46  
Since 1 July heating degree days 11 8  
Cooling Degree Days 3 5  
Month to date cooling degree days 90 152  
Year to date cooling degree days 494 496  
Since 1 June cooling degree days 436 467  
Growing Degree Days 18 (Base 50)    
Moisture  
Dew Point 61 °F    
Average Humidity 77    
Maximum Humidity 100    
Minimum Humidity 54    
Precipitation  
Precipitation 0.00 in 0.11 in 3.44 in (1992)
Month to date precipitation 5.95 3.17  
Year to date precipitation 25.77 28.77  
Snow  
Snow 0.00 in - - ()
Month to date snowfall 0.0  
Since 1 June snowfall T  
Since 1 July snowfall 0.0  
Snow Depth 0.00 in    
Sea Level Pressure  
Sea Level Pressure 30.16 in    
Wind  
Wind Speed 1 mph (NW)    
Max Wind Speed 7 mph    
Max Gust Speed -    
Visibility 6 miles    
Events Fog    
T = Trace of Precipitation, MM = Missing Value Source: NWS Daily Summary

Daily Weather History Graph

Daily Weather History Graph

Search for Another Location

Airport or City:

Trip Planner

Search our weather history database for the weather conditions in past years. The results will help you decide how hot, cold, wet, or windy it might be!

Date:

Astronomy

Aug. 27, 2014 Rise Set
Actual Time 6:48 AM EDT 7:57 PM EDT
Civil Twilight 6:21 AM EDT 8:24 PM EDT
Nautical Twilight 5:49 AM EDT 8:56 PM EDT
Astronomical Twilight 5:15 AM EDT 9:29 PM EDT
Moon 8:39 AM EDT (8/27) 8:53 PM EDT (8/27)
Length of Visible Light 14h 03m
Length of Day
13h 09m
Waxing Crescent, 4% of the Moon is Illuminated
Aug 27
Waxing Crescent
Sep 2
First Quarter
Sep 8
Full
Sep 15
Last Quarter
Sep 24
New

Hourly Weather History & Observations

Time (EDT) Temp. Heat Index Dew Point Humidity Pressure Visibility Wind Dir Wind Speed Gust Speed Precip Events Conditions
12:15 AM 57.2 °F - 57.2 °F 100% 30.21 in 7.0 mi Calm Calm - N/A   Clear
12:35 AM 55.4 °F - 55.4 °F 100% 30.21 in 5.0 mi Calm Calm - N/A   Clear
12:55 AM 55.4 °F - 55.4 °F 100% 30.20 in 5.0 mi Calm Calm - N/A   Clear
1:15 AM 55.4 °F - 55.4 °F 100% 30.20 in 7.0 mi Calm Calm - N/A   Clear
1:35 AM 55.4 °F - 55.4 °F 100% 30.20 in 3.0 mi Calm Calm - N/A   Clear
1:55 AM 55.4 °F - 55.4 °F 100% 30.19 in 4.0 mi Calm Calm - N/A   Clear
2:15 AM 55.4 °F - 55.4 °F 100% 30.19 in 3.0 mi Calm Calm - N/A   Clear
2:35 AM 53.6 °F - 53.6 °F 100% 30.19 in 4.0 mi Calm Calm - N/A   Clear
2:55 AM 53.6 °F - 53.6 °F 100% 30.18 in 2.5 mi Calm Calm - N/A   Clear
3:15 AM 53.6 °F - 53.6 °F 100% 30.18 in 0.8 mi Calm Calm - N/A   Mist
3:35 AM 53.6 °F - 53.6 °F 100% 30.17 in 0.2 mi Calm Calm - N/A Fog Fog
3:55 AM 53.6 °F - 53.6 °F 100% 30.17 in 0.2 mi Calm Calm - N/A Fog Fog
4:15 AM 53.6 °F - 53.6 °F 100% 30.16 in 0.2 mi Calm Calm - N/A Fog Fog
4:35 AM 53.6 °F - 53.6 °F 100% 30.17 in 0.2 mi Calm Calm - N/A Fog Fog
4:55 AM 53.6 °F - 53.6 °F 100% 30.17 in 0.2 mi Calm Calm - N/A Fog Fog
5:15 AM 53.6 °F - 53.6 °F 100% 30.17 in 0.2 mi Calm Calm - N/A Fog Fog
5:35 AM 53.6 °F - 53.6 °F 100% 30.17 in 0.2 mi Calm Calm - N/A Fog Fog
5:55 AM 53.6 °F - 53.6 °F 100% 30.17 in 0.2 mi Calm Calm - N/A Fog Fog
6:15 AM 53.6 °F - 53.6 °F 100% 30.18 in 0.2 mi Calm Calm - N/A Fog Fog
6:35 AM 53.6 °F - 53.6 °F 100% 30.18 in 0.2 mi Calm Calm - N/A Fog Fog
6:55 AM 53.6 °F - 53.6 °F 100% 30.19 in 0.2 mi Calm Calm - N/A Fog Fog
7:15 AM 53.6 °F - 53.6 °F 100% 30.19 in 0.2 mi Calm Calm - N/A Fog Fog
7:35 AM 53.6 °F - 53.6 °F 100% 30.20 in 0.2 mi Calm Calm - N/A Fog Fog
7:55 AM 55.4 °F - 55.4 °F 100% 30.21 in 0.2 mi Calm Calm - N/A Fog Fog
8:15 AM 55.4 °F - 55.4 °F 100% 30.21 in 0.2 mi Calm Calm - N/A Fog Fog
8:35 AM 55.4 °F - 55.4 °F 100% 30.21 in 0.2 mi Calm Calm - N/A Fog Fog
8:55 AM 57.2 °F - 57.2 °F 100% 30.22 in 0.2 mi West 3.5 mph - N/A Fog Fog
9:15 AM 57.2 °F - 57.2 °F 100% 30.21 in 0.2 mi WNW 3.5 mph - N/A Fog Fog
9:35 AM 57.2 °F - 57.2 °F 100% 30.21 in 0.5 mi NW 3.5 mph - N/A Fog Fog
9:55 AM 59.0 °F - 59.0 °F 100% 30.21 in 2.0 mi Calm Calm - N/A   Overcast
10:15 AM 60.8 °F - 60.8 °F 100% 30.22 in 5.0 mi West 4.6 mph - N/A   Mostly Cloudy
10:35 AM 62.6 °F - 62.6 °F 100% 30.21 in 7.0 mi WNW 3.5 mph - N/A   Scattered Clouds
10:55 AM 64.4 °F - 64.4 °F 100% 30.21 in 10.0 mi NW 4.6 mph - N/A   Clear
11:15 AM 66.2 °F - 66.2 °F 100% 30.20 in 10.0 mi WSW 3.5 mph - N/A   Clear
11:35 AM 69.8 °F - 66.2 °F 88% 30.20 in 10.0 mi Calm Calm - N/A   Clear
11:55 AM 71.6 °F - 64.4 °F 78% 30.20 in 10.0 mi Calm Calm - N/A   Clear
12:15 PM 73.4 °F - 64.4 °F 73% 30.19 in 10.0 mi Calm Calm - N/A   Clear
12:35 PM 75.2 °F - 64.4 °F 69% 30.18 in 10.0 mi Calm Calm - N/A   Clear
12:55 PM 75.2 °F - 64.4 °F 69% 30.18 in 10.0 mi Calm Calm - N/A   Clear
1:15 PM 77.0 °F - 64.4 °F 65% 30.18 in 10.0 mi Calm Calm - N/A   Clear
1:35 PM 78.8 °F - 66.2 °F 65% 30.17 in 10.0 mi ESE 5.8 mph - N/A   Clear
1:55 PM 78.8 °F - 66.2 °F 65% 30.16 in 7.0 mi East 6.9 mph - N/A   Clear
2:15 PM 80.6 °F 82.3 °F 64.4 °F 58% 30.16 in 10.0 mi North 4.6 mph - N/A   Clear
2:35 PM 80.6 °F 82.3 °F 64.4 °F 58% 30.15 in 10.0 mi NE 6.9 mph - N/A   Clear
2:55 PM 80.6 °F 81.8 °F 62.6 °F 54% 30.14 in 10.0 mi NNW 4.6 mph - N/A   Clear
3:15 PM 80.6 °F 81.8 °F 62.6 °F 54% 30.14 in 10.0 mi East 5.8 mph - N/A   Clear
3:35 PM 80.6 °F 81.8 °F 62.6 °F 54% 30.13 in 10.0 mi Calm Calm - N/A   Clear
3:55 PM 82.4 °F 83.9 °F 64.4 °F 54% 30.13 in 10.0 mi NNW 3.5 mph - N/A   Clear
4:15 PM 82.4 °F 83.9 °F 64.4 °F 54% 30.13 in 10.0 mi NNE 3.5 mph - N/A   Clear
4:35 PM 82.4 °F 83.9 °F 64.4 °F 54% 30.12 in 10.0 mi Calm Calm - N/A   Clear
4:55 PM 82.4 °F 83.9 °F 64.4 °F 54% 30.12 in 10.0 mi Calm Calm - N/A   Clear
5:15 PM 82.4 °F 83.9 °F 64.4 °F 54% 30.11 in 10.0 mi Calm Calm - N/A   Clear
5:35 PM 82.4 °F 84.6 °F 66.2 °F 58% 30.11 in 10.0 mi Calm Calm - N/A   Clear
5:55 PM 82.4 °F 84.6 °F 66.2 °F 58% 30.11 in 10.0 mi WSW 4.6 mph - N/A   Clear
6:15 PM 80.6 °F 82.7 °F 66.2 °F 61% 30.11 in 10.0 mi WSW 3.5 mph - N/A   Clear
6:35 PM 80.6 °F 82.7 °F 66.2 °F 61% 30.10 in 10.0 mi Calm Calm - N/A   Clear
6:55 PM 80.6 °F 83.2 °F 68.0 °F 65% 30.10 in 10.0 mi Calm Calm - N/A   Clear
7:15 PM 78.8 °F - 68.0 °F 69% 30.09 in 10.0 mi Calm Calm - N/A   Clear
7:35 PM 75.2 °F - 69.8 °F 83% 30.09 in 10.0 mi Calm Calm - N/A   Clear
7:55 PM 73.4 °F - 69.8 °F 88% 30.08 in 10.0 mi Calm Calm - N/A   Clear
8:15 PM 71.6 °F - 68.0 °F 88% 30.09 in 10.0 mi Calm Calm - N/A   Clear
8:35 PM 69.8 °F - 66.2 °F 88% 30.09 in 10.0 mi Calm Calm - N/A   Clear
8:55 PM 68.0 °F - 66.2 °F 94% 30.10 in 10.0 mi Calm Calm - N/A   Clear
9:15 PM 68.0 °F - 66.2 °F 94% 30.11 in 10.0 mi Calm Calm - N/A   Clear
9:35 PM 68.0 °F - 66.2 °F 94% 30.11 in 10.0 mi Calm Calm - N/A   Clear
9:55 PM 69.8 °F - 66.2 °F 88% 30.12 in 10.0 mi Calm Calm - N/A   Clear
10:15 PM 69.8 °F - 66.2 °F 88% 30.12 in 10.0 mi West 3.5 mph - N/A   Clear
10:35 PM 69.8 °F - 66.2 °F 88% 30.12 in 10.0 mi West 3.5 mph - N/A   Clear
10:55 PM 69.8 °F - 66.2 °F 88% 30.12 in 10.0 mi Calm Calm - N/A   Clear
11:15 PM 69.8 °F - 66.2 °F 88% 30.11 in 10.0 mi Calm Calm - N/A   Clear
11:35 PM 69.8 °F - 66.2 °F 88% 30.11 in 10.0 mi Calm Calm - N/A   Clear
11:55 PM 69.8 °F - 66.2 °F 88% 30.11 in 10.0 mi Calm Calm - N/A   Clear